TimeCST,TemperatureF,Dew PointF,Humidity,Sea Level PressureIn,VisibilityMPH,Wind Direction,Wind SpeedMPH,Gust SpeedMPH,PrecipitationIn,Events,Conditions,WindDirDegrees,DateUTC
12:16 AM,35.1,34.0,96,29.73,1.8,Calm,Calm,-,N/A,,Clear,0,2012-12-16 06:16:00
12:20 AM,35.1,33.1,92,29.73,0.5,Calm,Calm,-,N/A,Fog,Fog,0,2012-12-16 06:20:00
12:30 AM,36.0,35.1,97,29.74,1.0,Calm,Calm,-,N/A,,Clear,0,2012-12-16 06:30:00
12:34 AM,36.0,35.1,97,29.74,3.0,Calm,Calm,-,N/A,,Clear,0,2012-12-16 06:34:00
12:53 AM,35.1,34.0,96,29.75,4.0,Calm,Calm,-,N/A,,Clear,0,2012-12-16 06:53:00
1:04 AM,35.1,32.0,89,29.73,1.8,NW,3.5,-,N/A,,Clear,320,2012-12-16 07:04:00
1:10 AM,34.0,32.0,92,29.73,0.5,WNW,3.5,-,N/A,Fog,Fog,300,2012-12-16 07:10:00
1:19 AM,35.1,34.0,96,29.73,1.0,Calm,Calm,-,N/A,,Clear,0,2012-12-16 07:19:00
1:24 AM,35.1,34.0,96,29.73,0.5,NW,3.5,-,N/A,Fog,Fog,310,2012-12-16 07:24:00
1:38 AM,34.0,33.1,96,29.73,1.0,Calm,Calm,-,N/A,,Clear,0,2012-12-16 07:38:00
1:46 AM,33.1,32.0,96,29.73,0.5,Calm,Calm,-,N/A,Fog,Fog,0,2012-12-16 07:46:00
1:53 AM,33.1,32.0,96,29.74,0.5,WNW,3.5,-,N/A,Fog,Fog,300,2012-12-16 07:53:00
2:15 AM,33.1,32.0,96,29.74,1.0,West,3.5,-,N/A,,Clear,280,2012-12-16 08:15:00
2:25 AM,33.1,32.0,96,29.74,3.0,West,3.5,-,N/A,,Clear,280,2012-12-16 08:25:00
2:53 AM,35.1,33.1,92,29.76,6.0,West,3.5,-,N/A,,Clear,260,2012-12-16 08:53:00
3:19 AM,30.9,30.0,96,29.75,2.0,NW,6.9,-,N/A,,Clear,320,2012-12-16 09:19:00
3:32 AM,34.0,32.0,92,29.75,4.0,WNW,4.6,-,N/A,,Clear,300,2012-12-16 09:32:00
3:53 AM,34.0,32.0,92,29.76,5.0,Calm,Calm,-,N/A,,Clear,0,2012-12-16 09:53:00
4:29 AM,32.0,30.0,92,29.75,2.5,Calm,Calm,-,N/A,,Clear,0,2012-12-16 10:29:00
4:42 AM,32.0,30.9,96,29.75,1.0,Calm,Calm,-,N/A,,Clear,0,2012-12-16 10:42:00
4:47 AM,32.0,30.2,93,29.74,0.5,Calm,Calm,-,N/A,Fog,Fog,0,2012-12-16 10:47:00
4:53 AM,32.0,30.2,93,29.75,0.5,Calm,Calm,-,N/A,Fog,Fog,0,2012-12-16 10:53:00
5:00 AM,32.0,30.0,92,29.75,1.0,NW,3.5,-,N/A,,Clear,320,2012-12-16 11:00:00
5:31 AM,32.0,30.0,92,29.76,3.0,Calm,Calm,-,N/A,,Clear,0,2012-12-16 11:31:00
5:53 AM,30.9,28.9,92,29.76,2.5,Calm,Calm,-,N/A,,Clear,0,2012-12-16 11:53:00
5:59 AM,30.9,28.9,92,29.75,0.8,Calm,Calm,-,N/A,,Clear,0,2012-12-16 11:59:00
6:04 AM,30.9,28.9,92,29.75,0.5,Calm,Calm,-,N/A,Fog,Light Freezing Fog,0,2012-12-16 12:04:00
6:14 AM,30.0,28.0,92,29.75,0.8,NNW,3.5,-,N/A,,Mostly Cloudy,330,2012-12-16 12:14:00
6:22 AM,28.9,28.0,96,29.75,1.0,NNW,3.5,-,N/A,,Mostly Cloudy,330,2012-12-16 12:22:00
6:30 AM,30.0,28.9,96,29.75,0.8,NW,4.6,-,N/A,,Mostly Cloudy,320,2012-12-16 12:30:00
6:37 AM,30.0,28.9,96,29.76,1.5,WNW,3.5,-,N/A,,Mostly Cloudy,300,2012-12-16 12:37:00
6:47 AM,30.2,30.2,100,29.76,3.0,Calm,Calm,-,N/A,,Scattered Clouds,0,2012-12-16 12:47:00
6:48 AM,30.9,30.0,96,29.77,3.0,Calm,Calm,-,N/A,,Scattered Clouds,0,2012-12-16 12:48:00
7:14 AM,32.0,30.0,92,29.77,3.0,NW,4.6,-,N/A,,Scattered Clouds,320,2012-12-16 13:14:00
7:23 AM,32.0,30.0,92,29.77,3.0,NNW,5.8,-,N/A,,Mostly Cloudy,330,2012-12-16 13:23:00
7:36 AM,33.1,30.9,92,29.77,2.5,NNW,6.9,-,N/A,,Overcast,340,2012-12-16 13:36:00
7:50 AM,33.8,30.2,87,29.77,1.2,NNW,3.5,-,N/A,,Overcast,340,2012-12-16 13:50:00
7:53 AM,33.1,32.0,96,29.78,1.2,North,8.1,-,N/A,,Overcast,350,2012-12-16 13:53:00
8:53 AM,34.0,32.0,92,29.80,1.0,NNE,5.8,-,N/A,,Overcast,20,2012-12-16 14:53:00
9:31 AM,34.0,32.0,92,29.78,0.8,North,3.5,-,N/A,,Overcast,350,2012-12-16 15:31:00
9:42 AM,34.0,33.1,96,29.78,0.8,North,3.5,-,N/A,,Overcast,360,2012-12-16 15:42:00
9:53 AM,34.0,33.1,96,29.80,0.8,North,5.8,-,N/A,,Overcast,360,2012-12-16 15:53:00
10:03 AM,34.0,33.1,96,29.79,1.0,North,5.8,-,N/A,,Overcast,350,2012-12-16 16:03:00
10:15 AM,34.0,33.1,96,29.79,0.8,Calm,Calm,-,N/A,,Overcast,0,2012-12-16 16:15:00
11:08 AM,35.1,33.1,92,29.77,1.2,NNW,4.6,-,N/A,,Overcast,330,2012-12-16 17:08:00
11:53 AM,35.1,33.1,92,29.76,2.0,NNE,6.9,-,N/A,,Overcast,20,2012-12-16 17:53:00
12:53 PM,36.0,33.1,89,29.75,3.0,North,5.8,-,N/A,,Overcast,350,2012-12-16 18:53:00
1:24 PM,36.0,33.1,89,29.72,3.0,NW,9.2,-,N/A,,Overcast,310,2012-12-16 19:24:00
1:53 PM,37.0,33.1,86,29.74,4.0,NW,4.6,-,N/A,,Overcast,310,2012-12-16 19:53:00
2:53 PM,37.0,33.1,86,29.73,4.0,North,8.1,-,N/A,,Overcast,350,2012-12-16 20:53:00
3:24 PM,37.0,34.0,89,29.72,2.5,NNE,6.9,-,N/A,,Overcast,20,2012-12-16 21:24:00
3:53 PM,37.0,34.0,89,29.75,2.5,NNW,5.8,-,N/A,,Overcast,330,2012-12-16 21:53:00
4:30 PM,37.0,33.1,86,29.74,3.0,NNE,9.2,-,N/A,,Overcast,20,2012-12-16 22:30:00
4:53 PM,37.0,34.0,89,29.78,4.0,North,3.5,-,N/A,,Overcast,350,2012-12-16 22:53:00
5:53 PM,37.0,34.0,89,29.80,5.0,North,8.1,-,N/A,,Overcast,360,2012-12-16 23:53:00
6:53 PM,36.0,33.1,89,29.81,5.0,NNW,8.1,-,N/A,,Overcast,340,2012-12-17 00:53:00
7:53 PM,35.1,32.0,89,29.83,5.0,NNW,8.1,-,N/A,,Overcast,340,2012-12-17 01:53:00
8:53 PM,35.1,33.1,92,29.82,4.0,North,3.5,-,N/A,,Overcast,10,2012-12-17 02:53:00
9:53 PM,36.0,33.1,89,29.82,3.0,Calm,Calm,-,N/A,,Overcast,0,2012-12-17 03:53:00
10:05 PM,36.0,32.0,86,29.80,3.0,Calm,Calm,-,N/A,,Overcast,0,2012-12-17 04:05:00
10:53 PM,36.0,32.0,86,29.81,4.0,North,8.1,-,N/A,,Overcast,360,2012-12-17 04:53:00
11:53 PM,36.0,30.9,82,29.83,5.0,NNW,8.1,-,N/A,,Haze,340,2012-12-17 05:53:00